Погода в Ларвике

Норвегия     59°02′53″N   10°02′17″E
темп.,
°C
ветер,
м/с
пор.,
м/с
влажн.,
%
обл.,
%
осадки,
мм/ч
давл.,
гПа
погр.,
м
17 августа, ср
ср1723:00+19зюз239560 0.0 100680
02:00+19юз469283 0.0 1006312
05:00+19ююз6990100 0.0 1006253
08:00+19юз798646 0.0 1006268
11:00+20юз810802 0.0 1008417
14:00+19ююз1012825 0.0 1008394
17:00+18ююз1013820 0.0 1009368
20:00+19ююз698450 0.0 1009221
18 августа, чт
чт1823:00+19юз12794 0.0 101048
02:00+16св789331 0.0 1012317
05:00+16св7886100 0.0 1013488
08:00+17св5680100 0.0 1014553
11:00+17вюв3472100 0.0 1015598
14:00+17ююз3468100 0.1 1015430
17:00+17ю4572100 0.0 1015686
20:00+17ююз337174 0.0 1014517
19 августа, пт
пт1923:00+16ю3374100 0.0 1015471
02:00+15ююз2371100 0.0 1014435
05:00+15юз1267100 0.0 1014382
08:00+15ссв1164100 0.0 1014283
11:00+17вюв215478 0.0 1014364
14:00+17ю2253100 0.0 1014314
17:00+18юз3455100 0.0 1013315
20:00+17юз3463100 0.0 1012209
20 августа, сб
сб2023:00+18юз4669100 0.0 1011271
02:00+16юз458596 0.0 1011267
05:00+16зюз569178 0.0 1011316
08:00+16юз5686100 0.1 1010385
11:00+17ююз568484 0.0 1010558
14:00+18ююз678160 0.0 1010598
17:00+18ююз1011740 0.0 1010554
20:00+18юз1113735 0.0 1010690
21 августа, вс
вс2123:00+17зюз1011720 0.0 1010831
02:00+16зюз811775 0.0 1011854
05:00+16юз79817 0.1 1010732
08:00+17юз798228 0.8 1010750
11:00+17юз797369 2.4 1009749
14:00+18ююз99650 2.4 1010841
17:00+17ююз1112731 0.0 1010633
20:00+18юз1011665 0.2 1010472